Home   Weather   Sancti Spíritus   Past weeks
Flag for Cuba

Past Weather in Sancti Spíritus, Cuba — Yesterday and Last 2 Weeks

Now
90 °F

Scattered clouds.


Feels Like: 92 °F
Forecast: N/A
Wind: 3 mph from South

Location: Santa Bárbara

Current Time: Oct 21, 2019 at 5:18:04 pm

Latest Report: Oct 21, 2019 at 3:57 pm


Visibility: 6 mi

Pressure: 29.95 "Hg

Humidity: 46%

Dew Point: 66 °F

Location of Sancti SpíritusLocation

Past Weather in Sancti Spíritus — Graph

°F

Sancti Spíritus Temperature Yesterday

Maximum temperature yesterday: 91 °F (at 1:50 pm)
Minimum temperature yesterday: 72 °F (at 4:50 am)
Average temperature yesterday: 80 °F

High & Low Weather Summary for the Past Weeks

 TemperatureHumidityPressure
High91 °F (Oct 9, 2:50 pm)100% (Oct 18, 5:52 am)30.04 "Hg (Oct 18, 5:52 am)
Low70 °F (Oct 8, 3:50 am)46% (Oct 21, 3:57 pm)29.80 "Hg (Oct 7, 3:51 am)
Average79 °F81%29.94 "Hg
* Reported Oct 6 3:52 pm — Oct 21 3:57 pm, Sancti Spíritus. Weather by CustomWeather, © 2019

Note: Actual official high and low records may vary slightly from our data, if they occured in-between our weather recording intervals... More about our weather records

Advertising

Sancti Spíritus Weather History for the Previous 24 Hours

Scroll right to see more
 ConditionsComfort  
Time TempWeatherWind HumidityBarometerVisibility
3:57 pm
Mon, Oct 21
90 °FScattered clouds.3 mph46%29.95 "Hg6 mi
2:50 pm90 °FScattered clouds.5 mph52%29.95 "Hg6 mi
1:50 pm90 °FScattered clouds.5 mph52%29.98 "Hg6 mi
12:50 pm88 °FScattered clouds.6 mph59%30.01 "Hg6 mi
11:51 am86 °FScattered clouds.8 mph62%30.01 "Hg6 mi
10:52 am84 °FScattered clouds.8 mph70%30.01 "Hg6 mi
9:50 am81 °FScattered clouds.7 mph84%30.01 "Hg6 mi
8:52 am79 °FPassing clouds.3 mph84%30.01 "Hg6 mi
7:50 am73 °FFog.3 mph94%30.01 "Hg3 mi
6:51 am73 °FFog.3 mph94%29.98 "Hg3 mi
5:50 am72 °FClear.1 mph94%29.98 "Hg5 mi
4:50 am73 °FClear.2 mph94%29.95 "Hg5 mi
3:51 am73 °FClear.3 mph94%29.95 "Hg5 mi
2:50 am73 °FPassing clouds.2 mph94%29.98 "Hg5 mi
1:50 am73 °FPassing clouds.2 mph94%29.98 "Hg5 mi
12:51 am73 °FPassing clouds.No wind94%30.01 "Hg6 mi
11:51 pm
Sun, Oct 20
75 °FPassing clouds.2 mph89%30.01 "Hg6 mi
10:50 pm75 °FPassing clouds.3 mph89%30.01 "Hg6 mi
9:51 pm77 °FPassing clouds.2 mph89%30.01 "Hg6 mi
8:50 pm79 °FPassing clouds.2 mph84%29.98 "Hg6 mi
7:50 pm81 °FPassing clouds.5 mph79%29.98 "Hg6 mi
6:50 pm84 °FPassing clouds.7 mph70%29.95 "Hg6 mi
5:50 pm86 °FPassing clouds.9 mph66%29.95 "Hg6 mi
Weather by CustomWeather, © 2019

See weather overview